CAPE
0 0 0 0 0 0 0 0 10 11 10 22 27 26 55 9 0 0 0 80 235 573 1427 2261 2289 2718 2621 1750 1961 1413 1795 1665 2160 2647 2528 2676 2586 3199 3256 3579 3629 3930 3955 3740
41 7 0 0 0 0 0 0 0 0 0 0 0 0 0 13 30 0 0 0 33 164 430 1319 2423 2816 2886 2535 2340 1938 2258 1966 2160 2715 2756 2765 2826 3277 3643 3760 3838 3987 3941 3918
43 41 14 6 0 0 0 0 0 0 0 0 0 0 0 11 38 16 21 0 22 0 190 372 906 2405 2488 2939 2418 2639 2836 2491 2717 3146 3153 3179 3211 3544 3763 3865 4080 4223 4114 4035
150 71 48 17 0 0 0 0 0 0 0 0 0 0 0 79 804 745 516 154 223 240 191 110 429 810 1800 2148 3205 3170 2949 3471 3000 3496 3449 3616 3706 3741 3914 3955 4008 4174 4275 4288
250 140 43 21 8 0 11 0 0 0 0 0 0 0 0 0 970 799 830 827 812 808 720 778 332 408 1834 1910 3356 3179 3554 3548 3480 3582 3743 3927 3968 3992 4080 4111 4138 4173 4311 4440
287 134 114 22 18 65 1 1 0 0 0 0 0 0 0 774 1072 885 751 746 898 1020 1057 1130 1254 868 668 1645 2391 3322 3632 3526 3751 3725 3956 4004 4079 4207 4353 4268 4250 3707 4116 4362
372 207 154 47 70 7 7 3 4 18 7 0 0 0 46 166 296 211 533 807 1022 1402 1454 1684 1791 1459 1633 1782 2409 3104 3374 3695 4015 3965 4135 4187 4331 4378 4417 4381 3702 4356 4199 4285
114 109 119 47 47 31 33 0 0 9 49 101 264 501 64 0 1 0 26 115 602 2126 2244 2229 2223 2653 2735 2327 2741 3370 3622 3712 4061 4235 3789 3599 4467 4458 4488 4489 4468 4624 4512 4312
106 59 79 43 17 8 2 16 10 62 376 620 309 103 1 0 0 0 0 1 71 1763 2547 1508 2331 2797 3160 2416 3887 3725 3907 3935 4135 4282 4269 4213 4405 4555 4065 4443 3358 3537 3437 3160
10 9 27 21 5 24 29 25 68 13 0 6 1 1 0 1 0 1 1 0 0 512 2722 2708 2671 2161 2648 4450 4035 4188 4149 4092 4254 4222 4268 4206 3681 3740 3253 3162 3215 2913 2935 2661
14 8 9 14 27 28 50 54 47 7 7 7 7 6 8 10 2 1 3 1 2 2 96 523 1268 1968 2388 3221 3887 3525 4077 4137 3934 3618 3404 3952 3968 2808 3337 1051 1572 2920 2239 1834
28 12 25 10 24 45 48 26 16 17 6 0 0 16 29 44 11 6 0 1 1 1 4 4 5 2 4 397 3651 3524 3696 3336 3481 3036 3404 3548 1957 1136 0 143 1 3 3 465
12 21 18 30 21 10 45 46 28 3 0 21 17 23 58 45 39 19 3 7 8 11 6 8 2 1 2 11 1187 3270 3343 4075 3341 2895 3269 3721 3442 2749 2176 128 2 3 0 0
34 27 13 18 29 18 6 10 21 8 8 7 5 5 12 24 61 22 17 29 16 14 11 9 1 2 1 30 194 2992 3347 2326 3304 3279 3445 3715 3669 3626 2817 2443 1690 1286 0 0
17 36 25 29 28 29 33 26 10 11 6 7 15 11 16 24 8 15 26 9 7 10 9 13 4 4 0 1 15 1115 3036 2988 3030 3434 3386 2879 2610 1771 1118 1075 1236 519 30 1
19 14 15 16 32 33 26 23 24 24 13 14 13 12 9 22 22 17 8 14 3 2 5 13 5 3 2 0 68 180 1145 476 906 1160 955 979 1066 1205 637 550 425 481 86 14
42 31 23 17 20 18 15 31 35 35 38 23 16 13 9 8 8 17 8 5 5 6 2 3 1 1 3 0 0 177 694 614 608 1703 1559 1037 497 616 1448 1252 506 111 11 0
42 39 36 35 23 24 19 26 25 20 32 36 22 12 11 16 18 16 12 11 5 3 2 1 0 0 0 0 0 88 367 400 165 122 114 258 260 544 452 65 0 0 0 0
23 20 22 23 28 42 29 25 17 15 10 13 14 15 16 16 19 13 24 11 13 6 6 3 0 0 0 0 0 0 385 349 158 11 0 0 6 31 4 6 4 0 0 0
40 24 30 31 19 31 26 45 29 30 22 12 8 11 15 22 26 16 14 16 21 15 13 8 1 0 0 0 0 0 2 83 90 18 13 9 10 7 6 0 3 0 0 0
52 50 33 55 28 30 29 14 16 28 34 23 32 23 20 13 15 22 11 12 16 10 11 8 4 0 0 0 0 12 4 39 12 5 1 0 0 2 2 5 14 4 0 0
29 14 42 29 18 22 36 32 9 18 31 30 19 23 20 14 9 11 12 18 12 8 9 10 14 7 5 3 0 3 11 0 2 1 0 0 0 0 0 0 0 0 0 1
72 70 47 57 37 36 38 36 31 22 18 30 30 41 31 48 23 9 11 12 15 17 11 16 11 5 2 1 1 0 0 0 0 0 0 0 0 0 0 0 0 0 0 0
65 51 48 56 44 35 33 37 34 50 49 35 41 55 49 60 49 4 7 8 18 17 23 20 13 7 2 3 3 4 4 8 3 0 0 0 0 0 0 0 0 0 0 0
48 60 45 58 48 27 27 29 26 28 39 66 51 25 55 22 39 24 2 14 23 13 16 19 17 12 7 5 5 5 4 3 3 6 5 2 0 0 0 0 0 0 0 0
99 52 52 30 36 34 32 29 32 28 40 39 36 30 54 43 16 43 10 7 21 15 15 9 11 12 11 8 6 6 6 5 4 3 3 5 4 3 0 0 0 0 0 0
75 2 76 63 55 45 29 31 42 41 23 49 50 34 39 59 19 26 14 22 9 16 42 50 14 2 9 14 21 12 1 0 0 1 1 1 3 3 1 1 3 1 0 0
CIN
-0 -0 -0 -0 -0 -0 -0 -0 -0 -1 -11 -15 -3 -1 -0 -0 -0 -0 -0 -0 -0 -0 -0 -0 -0 -2 -11 -28 -20 -47 -48 -57 -37 -25 -25 -6 -2 -0 -0 -0 -4 -2 -0 -0
-0 -0 -0 -0 -0 -0 -0 -0 -0 -0 -0 -0 -0 -0 -0 -22 -0 -0 -0 -0 -8 -1 -0 -0 -0 -1 -5 -12 -17 -32 -32 -77 -63 -27 -14 -13 -12 -0 -0 -0 -0 -3 -0 -0
-0 -0 -0 -0 -0 -0 -0 -0 -0 -0 -0 -0 -0 -0 -0 -6 -0 -1 -0 -3 -9 -0 -20 -16 -20 -20 -15 -37 -36 -13 -16 -29 -10 -12 -15 -8 -9 -1 -0 -0 -0 -0 -2 -0
-0 -0 -0 -0 -0 -0 -0 -0 -0 -0 -0 -0 -0 -0 -0 -7 -7 -8 -5 -7 -1 -10 -35 -72 -35 -40 -50 -19 -5 -4 -20 -3 -8 -0 -14 -4 -0 -0 -4 -6 -6 -1 -1 -2
-0 -0 -0 -0 -0 -0 -61 -0 -0 -0 -0 -0 -0 -0 -0 -0 -7 -33 -53 -52 -57 -57 -51 -78 -93 -60 -24 -52 -15 -16 -19 -14 -19 -7 -7 -2 -0 -0 -1 -4 -8 -5 -3 -2
-0 -0 -0 -0 -7 -77 -61 -0 -0 -0 -0 -0 -0 -0 -0 -4 -3 -43 -75 -70 -66 -91 -97 -93 -137 -86 -86 -97 -70 -60 -57 -82 -33 -12 -4 -13 -9 -1 -0 -5 -9 -21 -12 -4
-0 -0 -0 -8 -28 -78 -2 -0 -1 -36 -1 -0 -0 -0 -7 -96 -121 -185 -128 -103 -110 -119 -140 -132 -123 -115 -84 -73 -100 -138 -103 -37 -18 -14 -8 -11 -3 -0 -1 -6 -10 -4 -1 -1
-0 -0 -0 -40 -34 -17 -3 -1 -0 -0 -4 -0 -11 -28 -57 -0 -35 -0 -112 -351 -240 -54 -51 -83 -113 -71 -89 -88 -134 -51 -50 -41 -17 -6 -25 -23 -0 -0 -0 -0 -0 -0 -0 -1
-0 -1 -9 -0 -0 -0 -0 -0 -0 -5 -0 -0 -6 -152 -0 -0 -0 -0 -0 -5 -434 -95 -12 -62 -74 -91 -83 -167 -12 -45 -36 -42 -25 -9 -17 -1 -1 -0 -15 -0 -15 -8 -1 -12
-0 -2 -0 -0 -0 -0 -0 -0 -0 -0 -0 -54 -0 -0 -0 -0 -0 -0 -0 -0 -0 -269 -0 -30 -32 -84 -85 -0 -9 -19 -22 -19 -14 -21 -21 -1 -13 -6 -15 -18 -19 -1 -1 -0
-0 -0 -0 -0 -0 -0 -0 -0 -0 -0 -0 -0 -0 -0 -0 -0 -0 -0 -0 -0 -0 -0 -188 -283 -180 -110 -25 -4 -9 -30 -1 -2 -33 -47 -48 -6 -2 -37 -4 -228 -227 -1 -0 -9
-0 -0 -0 -0 -0 -0 -0 -0 -0 -1 -0 -0 -0 -0 -0 -0 -0 -0 -0 -0 -1 -0 -0 -0 -0 -0 -223 -653 -11 -3 -13 -38 -42 -52 -38 -6 -159 -307 -0 -165 -0 -0 -0 -405
-0 -0 -0 -0 -0 -3 -0 -0 -0 -0 -0 -0 -0 -0 -0 -0 -0 -2 -4 -2 -1 -0 -1 -0 -0 -0 -0 -177 -297 -18 -20 -5 -25 -27 -51 -4 -25 -53 -129 -325 -0 -0 -0 -0
-0 -0 -0 -0 -0 -0 -4 -9 -0 -0 -1 -0 -0 -0 -0 -0 -0 -1 -1 -2 -2 -1 -0 -0 -0 -0 -0 -113 -514 -11 -3 -78 -5 -16 -35 -11 -10 -9 -58 -97 -168 -267 -0 -0
-0 -0 -0 -0 -0 -0 -0 -0 -0 -0 -0 -0 -0 -0 -0 -0 -0 -0 -1 -1 -0 -0 -0 -0 -0 -0 -0 -0 -563 -142 -17 -3 -0 -3 -1 -18 -50 -170 -249 -281 -314 -567 -778 -0
-0 -0 -0 -0 -0 -0 -0 -0 -0 -0 -0 -0 -0 -0 -0 -0 -0 -0 -0 -0 -0 -0 -0 -0 -0 -0 -0 -0 -332 -288 -88 -376 -268 -130 -218 -219 -237 -359 -346 -370 -459 -518 -721 -926
-0 -0 -0 -0 -0 -0 -0 -0 -0 -0 -0 -0 -0 -0 -0 -0 -0 -0 -0 -0 -0 -0 -0 -0 -0 -0 -0 -0 -0 -178 -66 -122 -194 -5 -37 -60 -138 -245 -194 -207 -315 -510 -564 -0
-0 -0 -0 -0 -0 -0 -0 -0 -0 -0 -0 -0 -0 -0 -0 -0 -0 -0 -0 -0 -0 -0 -0 -0 -0 -0 -0 -0 -0 -98 -67 -125 -202 -317 -388 -344 -382 -276 -419 -582 -0 -0 -0 -0
-0 -0 -0 -0 -0 -0 -0 -0 -0 -0 -0 -0 -0 -0 -0 -0 -0 -0 -0 -0 -0 -0 -0 -0 -0 -0 -0 -0 -0 -0 -11 -23 -184 -320 -0 -0 -152 -240 -230 -0 -0 -0 -0 -0
-0 -0 -0 -0 -0 -0 -0 -0 -0 -0 -0 -0 -0 -0 -0 -0 -0 -0 -0 -0 -0 -0 -0 -0 -0 -0 -0 -0 -0 -0 -118 -37 -124 -304 -300 -0 -0 -0 -0 -0 -0 -0 -0 -0
-0 -0 -1 -0 -0 -0 -0 -0 -0 -0 -0 -0 -0 -0 -0 -0 -0 -0 -0 -0 -0 -0 -0 -0 -0 -0 -0 -0 -0 -0 -1 -38 -113 -173 -0 -0 -0 -0 -0 -0 -0 -0 -0 -0
-2 -10 -0 -0 -1 -0 -0 -0 -5 -1 -0 -0 -0 -0 -0 -0 -0 -0 -0 -0 -0 -0 -0 -0 -0 -0 -0 -0 -0 -3 -0 -0 -0 -0 -0 -0 -0 -0 -0 -0 -0 -0 -0 -0
-0 -0 -0 -0 -0 -0 -0 -0 -0 -7 -6 -0 -0 -0 -0 -0 -0 -0 -0 -0 -0 -0 -0 -0 -0 -0 -0 -0 -0 -0 -0 -0 -0 -0 -0 -0 -0 -0 -0 -0 -0 -0 -0 -0
-0 -0 -0 -0 -0 -0 -0 -0 -0 -0 -0 -0 -0 -0 -0 -0 -0 -0 -0 -0 -0 -0 -0 -0 -0 -0 -0 -0 -0 -0 -0 -0 -0 -0 -0 -0 -0 -0 -0 -0 -0 -0 -0 -0
-1 -0 -0 -0 -0 -0 -0 -0 -0 -0 -0 -1 -0 -0 -0 -0 -0 -0 -0 -0 -0 -0 -0 -0 -0 -0 -0 -0 -0 -0 -0 -0 -0 -0 -0 -0 -0 -0 -0 -0 -0 -0 -0 -0
-0 -0 -0 -1 -0 -0 -0 -0 -0 -0 -0 -0 -0 -0 -0 -0 -1 -0 -0 -0 -0 -0 -0 -0 -0 -0 -0 -0 -0 -0 -0 -0 -0 -0 -0 -0 -0 -0 -0 -0 -0 -0 -0 -0
-0 -1 -0 -0 -0 -0 -0 -0 -0 -0 -1 -0 -0 -0 -0 -0 -3 -0 -4 -0 -0 -0 -0 -0 -1 -5 -0 -0 -0 -0 -0 -0 -0 -0 -0 -0 -0 -0 -0 -0 -0 -0 -0 -0
Wind_Speed
19 19 13 15 13 12 17 18 23 21 22 24 15 12 10 8 9 14 16 18 17 20 17 18 19 19 20 21 21 23 22 22 22 21 21 19 19 18 17 17 16 15 14 14
22 15 17 19 18 18 19 20 22 24 27 23 22 22 24 25 13 8 9 8 9 15 15 18 19 18 20 21 20 22 21 22 20 20 19 20 19 18 18 17 17 16 15 15
20 20 19 21 21 21 22 22 21 24 24 23 25 25 27 25 18 19 13 11 8 11 15 15 17 18 19 22 20 20 19 20 19 20 20 20 20 19 19 18 16 16 16 16
16 19 23 15 18 20 23 23 22 24 25 27 28 28 27 23 8 12 10 2 7 11 12 12 16 20 19 20 20 19 20 19 20 19 20 19 19 20 19 17 18 16 16 16
13 15 19 22 15 20 8 16 17 22 26 28 30 31 28 32 4 7 8 9 11 13 14 13 13 14 17 18 20 20 20 20 21 20 20 19 20 20 18 17 16 16 16 17
12 18 23 21 9 12 8 20 20 27 30 33 29 21 20 9 1 7 9 11 13 14 14 15 16 15 16 22 20 22 21 23 19 19 19 21 20 19 17 16 17 15 17 16
17 18 16 19 9 7 10 14 24 36 34 33 25 22 14 3 4 6 9 10 13 15 16 17 17 18 17 19 22 22 19 17 18 19 19 19 17 16 16 17 16 15 16 14
12 13 19 11 4 6 12 19 21 40 18 19 19 4 4 3 5 6 9 11 12 15 16 17 18 16 18 18 19 15 17 18 18 18 16 15 17 15 16 15 14 14 14 14
5 2 8 2 9 14 14 18 27 24 12 12 6 4 5 8 8 9 11 12 13 17 15 11 13 15 16 17 15 17 17 18 17 17 16 14 16 15 13 14 14 14 14 14
3 5 13 16 14 14 15 19 11 15 9 3 10 5 11 10 9 11 13 14 14 15 11 13 10 11 14 13 14 15 16 17 15 16 15 14 14 14 13 14 14 13 13 13
6 8 16 8 8 12 15 8 8 4 4 6 7 13 10 9 10 12 11 12 12 11 12 16 16 17 6 11 13 15 15 15 15 15 15 14 10 10 13 4 4 13 12 12
4 11 11 10 10 14 8 11 7 3 7 8 9 8 10 7 10 8 12 10 12 13 14 14 13 14 16 17 6 14 15 13 13 15 14 12 11 7 13 14 13 11 11 5
3 11 10 12 14 17 7 7 7 6 3 6 6 10 7 9 7 7 10 10 11 13 12 12 12 14 14 14 14 6 13 15 14 13 14 12 13 12 11 5 8 15 12 14
10 7 9 14 9 14 16 15 10 11 12 14 14 10 13 9 7 8 10 8 11 12 12 14 14 15 16 14 14 7 9 2 13 8 10 10 6 7 8 9 7 5 11 10
13 10 8 6 10 13 12 13 13 13 13 12 11 11 11 9 11 11 8 8 8 10 12 12 15 14 14 14 13 10 2 6 8 9 11 14 11 10 8 7 6 6 5 3
13 15 15 15 12 12 14 14 14 14 13 12 11 12 12 10 9 12 11 10 10 11 12 14 15 15 15 12 11 9 8 10 10 5 7 9 7 9 5 8 6 6 7 6
15 16 16 16 16 14 15 13 11 9 9 11 13 12 12 11 13 13 14 15 13 10 12 14 16 16 14 12 13 5 4 8 6 5 6 2 7 9 6 8 6 5 9 8
11 12 14 15 14 14 17 17 14 14 14 13 12 11 12 13 11 11 11 13 12 12 14 13 14 15 11 12 13 7 5 7 7 7 6 6 6 5 9 6 7 7 7 7
8 10 11 11 13 13 14 15 16 14 15 14 12 13 10 11 12 13 10 12 13 13 15 15 21 16 10 12 13 10 5 3 7 9 7 7 7 7 8 7 6 8 9 5
7 8 10 10 9 10 11 14 14 14 11 11 11 12 15 15 14 13 12 12 12 12 15 15 15 13 13 11 12 9 7 6 8 8 8 11 8 8 8 8 8 8 6 6
6 9 7 9 9 10 9 10 12 13 14 15 13 13 12 14 11 9 13 11 16 18 16 17 12 8 7 9 8 4 4 3 5 6 8 9 11 10 9 8 6 6 6 8
4 3 7 8 9 7 11 10 10 10 12 14 11 11 10 11 13 13 14 12 10 23 12 10 10 12 8 11 7 6 7 9 6 8 7 9 8 9 9 10 9 7 8 7
6 7 5 6 6 9 9 8 10 9 7 9 10 12 11 8 11 10 10 14 10 15 10 10 17 22 22 12 12 13 13 13 11 11 10 9 9 11 7 9 10 11 7 8
6 4 6 5 5 7 8 8 7 7 6 5 10 12 11 7 10 10 9 16 20 18 16 16 20 26 23 12 13 14 12 12 11 11 13 15 11 10 9 10 10 9 10 9
3 6 3 6 6 5 4 6 6 8 6 11 12 7 11 12 10 11 9 11 20 15 12 24 26 25 13 13 13 14 13 12 11 12 12 12 11 10 10 9 10 9 10 9
5 5 4 3 5 6 8 8 7 7 8 8 9 8 9 11 9 11 10 12 11 12 11 11 11 13 13 13 13 13 12 12 13 12 11 11 11 9 9 9 9 7 10 8
1 8 4 6 3 6 7 6 6 7 8 8 9 8 7 6 10 9 8 10 10 9 9 6 8 10 10 10 10 11 10 10 10 8 8 8 8 8 8 7 7 7 9 8
Wind_Direction
270 287 281 276 276 256 255 262 262 253 249 262 280 314 267 250 229 249 241 219 216 202 190 183 192 190 190 201 199 199 193 199 197 197 199 197 199 197 201 203 204 208 210 210
285 265 265 258 247 249 256 259 262 275 278 287 306 305 299 296 267 195 258 282 262 197 221 194 188 193 189 196 201 202 194 198 194 191 195 197 196 196 197 203 205 205 210 210
257 256 247 246 250 250 252 250 250 250 258 273 276 275 279 280 244 261 242 220 243 247 220 219 200 192 201 194 202 198 203 193 196 188 195 197 195 193 197 200 202 207 209 210
261 267 257 253 260 260 260 256 254 256 260 260 264 269 271 291 336 320 330 295 277 268 254 239 219 200 201 195 196 208 201 193 196 192 195 195 197 198 197 196 202 203 208 211
238 250 259 261 262 268 337 283 300 286 279 249 253 262 270 271 203 289 294 281 265 264 266 269 250 227 187 204 188 206 199 203 194 197 192 195 198 200 198 198 199 203 207 210
237 236 250 259 265 34 328 266 255 259 250 252 241 245 251 315 123 260 271 271 271 268 260 248 242 244 208 193 198 198 206 200 197 197 196 197 197 197 198 200 202 204 208 209
230 240 256 260 349 341 258 280 316 304 240 229 232 244 261 351 291 292 287 289 283 269 256 246 242 225 232 200 202 202 200 194 194 199 199 198 197 196 198 202 205 207 210 210
237 247 248 24 308 246 324 316 314 298 207 220 234 90 42 48 342 1 337 330 322 295 259 240 227 225 215 227 200 185 187 194 194 196 201 195 197 194 198 202 208 205 212 207
281 291 2 4 302 275 285 281 283 281 265 239 145 140 85 57 23 15 1 347 350 315 292 237 210 220 208 225 176 176 183 188 192 189 192 199 192 195 192 198 210 213 206 220
335 8 311 300 295 263 287 286 271 274 332 179 114 126 74 52 42 21 14 6 356 347 9 15 330 195 209 185 169 171 178 186 183 185 187 203 186 196 203 199 204 211 218 212
258 284 301 263 259 278 285 300 285 345 15 46 89 69 63 56 45 24 9 14 0 3 24 24 21 16 354 169 172 177 183 186 179 186 185 191 190 204 199 69 216 216 213 216
297 313 301 295 352 315 294 327 294 328 43 10 29 34 70 65 52 12 16 15 2 15 29 20 19 17 8 351 216 189 188 183 180 187 170 185 158 126 25 113 117 109 95 56
321 326 359 344 346 355 28 343 351 21 347 2 2 44 52 63 70 40 25 15 13 17 19 18 22 16 7 355 323 210 194 187 177 193 160 179 172 173 152 114 85 82 85 56
12 356 19 10 359 5 23 14 11 22 34 18 27 20 34 28 42 45 31 17 20 28 18 16 15 11 357 351 354 241 227 182 177 143 136 130 147 153 150 168 157 130 77 91
44 54 72 41 28 25 32 18 17 32 25 26 21 24 12 22 22 14 23 20 21 28 21 15 14 1 355 350 360 351 161 146 178 137 160 155 151 160 175 183 188 148 152 82
33 35 28 41 52 49 38 29 26 26 20 22 30 24 13 6 18 18 12 9 23 26 14 9 12 350 340 352 346 358 53 22 34 126 144 130 184 133 174 207 203 181 127 107
20 23 28 23 30 48 58 36 28 29 36 29 31 24 25 29 22 12 3 14 10 25 14 3 1 347 343 355 336 358 93 60 61 77 53 147 179 143 129 137 108 21 63 92
24 30 28 29 24 21 33 56 36 29 25 32 32 27 31 31 25 11 8 7 6 11 13 358 353 336 342 357 350 334 30 81 70 55 64 43 57 104 98 101 101 96 91 66
28 23 37 38 23 27 29 42 54 39 33 28 17 20 25 20 27 17 2 14 10 9 356 346 340 336 341 356 1 333 34 59 87 87 73 54 51 57 64 77 125 96 87 120
8 20 20 36 32 37 30 44 38 54 52 44 44 29 22 23 26 13 358 20 5 357 342 343 339 342 347 331 350 311 10 26 70 71 90 98 92 70 58 64 69 76 83 85
2 11 12 27 27 17 56 48 43 39 43 43 43 40 33 26 17 10 18 14 359 351 348 344 348 338 325 303 310 228 85 66 63 96 103 102 99 93 77 71 62 60 66 73
52 26 14 13 27 6 25 68 64 56 47 47 41 48 42 37 21 18 26 13 349 352 352 354 352 9 3 314 270 11 84 85 86 77 54 69 79 99 98 100 84 59 67 68
29 37 27 20 29 31 31 16 88 76 61 50 42 46 50 52 48 17 9 4 9 12 17 23 30 44 44 39 40 53 54 56 55 63 60 64 68 65 64 87 91 89 66 67
20 349 11 357 12 42 32 355 33 95 126 96 57 37 49 48 58 40 12 14 25 35 42 46 48 52 54 48 49 49 49 60 62 66 62 51 63 87 90 85 80 86 92 86
356 327 354 359 331 22 36 16 29 31 65 117 106 58 55 72 65 56 26 26 39 46 48 50 53 56 56 59 62 62 59 59 61 61 64 68 71 71 65 64 70 68 60 64
285 321 32 47 327 4 14 4 23 41 21 28 78 72 49 79 82 83 72 45 47 54 49 49 49 55 59 60 63 65 67 67 65 64 65 63 67 61 65 70 71 69 84 87
305 326 87 309 14 59 31 359 355 38 34 23 50 69 65 67 97 84 77 89 79 66 67 78 81 85 81 78 74 72 72 71 64 71 73 81 74 70 67 63 63 62 65 62